Regional Weather Roundup
Issued by NWS Kansas City/Pleasant Hill, MO

Home | Current Version | Previous Version | Graphics & Text | Print | Product List | Glossary Off
Versions: 1 2 3 4 5 6 7 8 9 10 11 12 13 14 15 16 17 18 19 20 21 22 23 24 25 26 27

000
ASUS43 KEAX 251810
RWREAX

WEATHER ROUNDUP FOR EASTERN KANSAS AND NORTHWEST MISSOURI
NATIONAL WEATHER SERVICE KANSAS CITY/PLEASANT HILL MO
100 PM CDT MON JUL 25 2016

KSZ040-057-103>105-MOZ028-029-037-043-251900-
...KANSAS CITY METROPOLITAN AREA...

CITY           SKY/WX    TMP DP  RH WIND       PRES   REMARKS
K.C. INTL      CLOUDY    79  70  74 N7        30.07F
6HR MIN TEMP:  73; 6HR MAX TEMP:  79;

K.C. DOWNTOWN  CLOUDY    80  70  71 NW3       30.05F
6HR MIN TEMP:  75; 6HR MAX TEMP:  81;

LEES SUMMIT    CLOUDY    77  71  82 N5        30.07F
6HR MIN TEMP:  73; 6HR MAX TEMP:  77;

OLATHE - IXD     N/A     77  71  82 NE9       30.05F
OLATHE - OJC   CLOUDY    76  70  82 NE5       30.06F
6HR MIN TEMP:  73; 6HR MAX TEMP:  76;

LAWRENCE       PTSUNNY   77  70  79 NE7       30.06F

$$

MOZ001>008-011>017-020>025-030>033-038>040-044>046-053-054-251900-
...NORTHERN AND CENTRAL MISSOURI...

CITY           SKY/WX    TMP DP  RH WIND       PRES   REMARKS
ST. JOSEPH     PTSUNNY   81  66  60 E3        30.08F
6HR MIN TEMP:  71; 6HR MAX TEMP:  82;

MOSBY          CLOUDY    79  68  69 CALM      30.07F
WHITEMAN AFB   CLOUDY    77  77  99 W5        30.06F
6HR MIN TEMP:  72; 6HR MAX TEMP:  77;

CLINTON        CLOUDY    77  73  88 CALM      30.08F
SEDALIA        CLOUDY    79  73  82 NW6       30.09F
6HR MIN TEMP:  73; 6HR MAX TEMP:  79; 6HR PCP:  0.06;

WARSAW         NOT AVBL
CHILLICOTHE      N/A     84  68  58 VRB5      30.09S
6HR MIN TEMP:  73; 6HR MAX TEMP:  84;

KIRKSVILLE     MOSUNNY   85  65  51 N8        30.09S
6HR MIN TEMP:  71; 6HR MAX TEMP:  85; 6HR PCP: TRACE;


$$

MOZ041-047>049-056>058-063>065-088>090-097-251900-
...EASTERN AND SOUTHERN MISSOURI...

CITY           SKY/WX    TMP DP  RH WIND       PRES   REMARKS
ST. LOUIS INTL CLOUDY    83  71  67 VRB5      30.04F
6HR MIN TEMP:  75; 6HR MAX TEMP:  85; 6HR PCP: TRACE;

SPIRIT OF STL  MOSUNNY   84  75  74 W5        30.01F HX  92
COLUMBIA       CLOUDY    78  73  84 NW6       30.08S
JEFFERSON CITY PTSUNNY   81  73  76 W5        30.06F
ROLLA          CLOUDY    80  72  76 NW10      30.05F
OSAGE BEACH    CLOUDY    76  73  91 W7        30.08F
SPRINGFIELD    CLOUDY    75  70  84 SW8       30.08F
BRANSON        CLOUDY    75  70  83 NW3       30.10F
JOPLIN         CLOUDY    76  72  87 NE3       30.05F
WEST PLAINS    CLOUDY    85  72  65 CALM      30.07F HX  91

$$

IAZ060-094-KSZ022-034>040-054-083-096-NEZ052-066-093-251900-
...KANSAS...SOUTHEAST NEBRASKA AND IOWA...

CITY           SKY/WX    TMP DP  RH WIND       PRES   REMARKS
TOPEKA         CLOUDY    77  70  79 NE10      30.05F
6HR MIN TEMP:  72; 6HR MAX TEMP:  77; 6HR PCP:  0.02;

MANHATTAN      CLOUDY    75  69  81 E5        30.09R
EMPORIA        PTSUNNY   78  71  79 CALM      30.02F
CHANUTE        CLOUDY    77  72  84 SE12      30.02F
WICHITA        PTSUNNY   80  68  66 SW3       30.08F
OMAHA          MOSUNNY   84  64  50 E5        30.12F
LINCOLN        SUNNY     84  62  47 MISG      30.13F
FALLS CITY     PTSUNNY   82  68  62 NE7       30.09F
LAMONI         CLOUDY    80  67  64 NE3       30.11S
DES MOINES     MOSUNNY   87  59  38 N8        30.09F

$$





USA.gov is the U.S. government's official web portal to all federal, state and local government web resources and services.